Weather History for Minden, LA

Change the Weather History Date:

Saturday, March 2, 2013

  Actual Average (KBAD) Record (KBAD)
Temperature  
Mean Temperature 40 °F -  
Max Temperature 49 °F 60 °F 83 °F (2012)
Min Temperature 29 °F 41 °F 27 °F (2009)
Degree Days  
Heating Degree Days 26    
Moisture  
Dew Point 23 °F    
Average Humidity 56    
Maximum Humidity 87    
Minimum Humidity 34    
Precipitation  
Precipitation 0.00 in - - ()
Sea Level Pressure  
Sea Level Pressure 30.27 in    
Wind  
Wind Speed 7 mph (NNW)    
Max Wind Speed 15 mph    
Max Gust Speed 21 mph    
Visibility 10 miles    
Events      
Averages and records for this station are not official NWS values.
T = Trace of Precipitation, MM = Missing Value Source: NWS Daily Summary

Daily Weather History Graph

Daily Weather History Graph

Search for Another Location

Airport:

Trip Planner

Search our weather history database for the weather conditions in past years. The results will help you decide how hot, cold, wet, or windy it might be!

Date:

Astronomy

Mar. 02, 2013 Rise Set
Actual Time 6:39 AM CST 6:11 PM CST
Civil Twilight 6:14 AM CST 6:36 PM CST
Nautical Twilight 5:46 AM CST 7:04 PM CST
Astronomical Twilight 5:17 AM CST 7:33 PM CST
Moon 11:30 PM CST (3/2) 9:27 AM CST (3/2)
Length of Visible Light 12h 21m
Length of Day
11h 32m
Waning Gibbous, 74% of the Moon is Illuminated
Mar 2
Waning Gibbous
Mar 4
Last Quarter
Mar 11
New
Mar 19
First Quarter
Mar 27
Full

Hourly Weather History & Observations

Time (CST) Temp. Windchill Dew Point Humidity Pressure Visibility Wind Dir Wind Speed Gust Speed Precip Events Conditions
12:15 AM 38.5 °F 34.1 °F 27.0 °F 63% 30.23 in 10.0 mi NNW 5.8 mph - N/A   Scattered Clouds
12:35 AM 37.6 °F 32.3 °F 27.5 °F 67% 30.23 in 10.0 mi North 6.9 mph - N/A   Mostly Cloudy
12:55 AM 37.8 °F 32.5 °F 26.6 °F 64% 30.24 in 10.0 mi NNW 6.9 mph - N/A   Overcast
1:15 AM 36.9 °F 32.2 °F 26.6 °F 66% 30.25 in 10.0 mi North 5.8 mph - N/A   Overcast
1:35 AM 36.7 °F 29.9 °F 25.0 °F 63% 30.25 in 10.0 mi North 9.2 mph - N/A   Overcast
1:55 AM 36.0 °F 30.3 °F 23.5 °F 61% 30.25 in 10.0 mi North 6.9 mph - N/A   Overcast
2:15 AM 35.6 °F 29.2 °F 23.0 °F 60% 30.25 in 10.0 mi North 8.1 mph - N/A   Mostly Cloudy
2:35 AM 34.5 °F 27.9 °F 23.0 °F 63% 30.24 in 10.0 mi North 8.1 mph - N/A   Mostly Cloudy
2:55 AM 34.0 °F 28.0 °F 23.0 °F 64% 30.25 in 10.0 mi NNW 6.9 mph - N/A   Scattered Clouds
3:15 AM 33.1 °F 26.1 °F 23.4 °F 67% 30.25 in 10.0 mi North 8.1 mph - N/A   Clear
3:35 AM 32.9 °F 25.9 °F 22.1 °F 65% 30.26 in 10.0 mi North 8.1 mph - N/A   Clear
3:55 AM 32.4 °F 29.1 °F 22.1 °F 66% 30.26 in 10.0 mi NNW 3.5 mph - N/A   Mostly Cloudy
4:15 AM 32.4 °F - 23.2 °F 69% 30.26 in 10.0 mi Calm Calm - N/A   Overcast
4:35 AM 32.9 °F - 22.8 °F 66% 30.27 in 10.0 mi Calm Calm - N/A   Overcast
4:55 AM 33.1 °F 27.7 °F 22.6 °F 66% 30.27 in 10.0 mi NNW 5.8 mph - N/A   Overcast
5:15 AM 33.8 °F 28.6 °F 22.3 °F 63% 30.27 in 10.0 mi NNW 5.8 mph - N/A   Overcast
5:35 AM 34.0 °F 27.2 °F 21.7 °F 61% 30.27 in 10.0 mi NNW 8.1 mph - N/A   Overcast
5:55 AM 34.0 °F 28.0 °F 21.6 °F 60% 30.28 in 10.0 mi NNW 6.9 mph - N/A   Overcast
6:15 AM 34.2 °F 26.8 °F 21.2 °F 59% 30.28 in 10.0 mi NNW 9.2 mph - N/A   Overcast
6:35 AM 34.2 °F 27.5 °F 20.8 °F 58% 30.29 in 10.0 mi NNW 8.1 mph - N/A   Overcast
6:55 AM 34.0 °F 28.0 °F 21.2 °F 60% 30.29 in 10.0 mi NNW 6.9 mph - N/A   Overcast
7:15 AM 34.2 °F 30.0 °F 21.2 °F 59% 30.30 in 10.0 mi NW 4.6 mph - N/A   Overcast
7:35 AM 34.3 °F 26.5 °F 20.7 °F 57% 30.31 in 10.0 mi NNW 10.4 mph - N/A   Overcast
7:55 AM 34.9 °F 27.1 °F 20.1 °F 55% 30.32 in 10.0 mi NNW 10.4 mph - N/A   Overcast
8:15 AM 35.1 °F 25.9 °F 19.8 °F 54% 30.33 in 10.0 mi NNW 13.8 mph - N/A   Overcast
8:35 AM 35.2 °F 28.1 °F 19.8 °F 53% 30.34 in 10.0 mi NNW 9.2 mph 18.4 mph N/A   Overcast
8:55 AM 37.0 °F 28.5 °F 21.0 °F 52% 30.34 in 10.0 mi NW 13.8 mph 18.4 mph N/A   Overcast
9:15 AM 37.0 °F 28.9 °F 20.8 °F 52% 30.34 in 10.0 mi NW 12.7 mph 18.4 mph N/A   Mostly Cloudy
9:35 AM 38.5 °F 31.6 °F 20.8 °F 49% 30.34 in 10.0 mi North 10.4 mph 17.3 mph N/A   Scattered Clouds
9:55 AM 39.4 °F 33.2 °F 21.2 °F 48% 30.33 in 10.0 mi NNW 9.2 mph 16.1 mph N/A   Scattered Clouds
10:15 AM 39.4 °F 32.3 °F 21.2 °F 48% 30.33 in 10.0 mi NW 11.5 mph 18.4 mph N/A   Mostly Cloudy
10:55 AM 41.9 °F 35.0 °F 21.0 °F 43% 30.32 in 10.0 mi NNW 12.7 mph 19.6 mph N/A   Mostly Cloudy
11:15 AM 41.0 °F 33.9 °F 21.4 °F 46% 30.32 in 10.0 mi NNW 12.7 mph 17.3 mph N/A   Mostly Cloudy
11:35 AM 41.7 °F 38.0 °F 20.7 °F 43% 30.32 in 10.0 mi NNW 5.8 mph 20.7 mph N/A   Mostly Cloudy
11:55 AM 43.0 °F 36.4 °F 20.8 °F 41% 30.31 in 10.0 mi North 12.7 mph 18.4 mph N/A   Scattered Clouds
12:15 PM 43.7 °F 37.7 °F 20.8 °F 40% 30.29 in 10.0 mi North 11.5 mph 18.4 mph N/A   Clear
12:35 PM 43.5 °F 40.1 °F 21.2 °F 41% 30.29 in 10.0 mi North 5.8 mph 18.4 mph N/A   Scattered Clouds
12:55 PM 45.3 °F 40.6 °F 21.9 °F 40% 30.28 in 10.0 mi WNW 9.2 mph - N/A   Scattered Clouds
1:15 PM 46.0 °F 40.6 °F 22.3 °F 39% 30.27 in 10.0 mi NNW 11.5 mph 17.3 mph N/A   Scattered Clouds
1:35 PM 46.4 °F 42.4 °F 21.7 °F 38% 30.27 in 10.0 mi NNW 8.1 mph 16.1 mph N/A   Scattered Clouds
1:55 PM 47.1 °F - 22.3 °F 38% 30.26 in 10.0 mi NW 13.8 mph 19.6 mph N/A   Scattered Clouds
2:15 PM 47.5 °F - 21.6 °F 36% 30.25 in 10.0 mi NNW 11.5 mph 17.3 mph N/A   Scattered Clouds
2:35 PM 47.3 °F - 21.6 °F 36% 30.25 in 10.0 mi NNW 11.5 mph 19.6 mph N/A   Clear
2:55 PM 48.2 °F - 21.0 °F 34% 30.24 in 10.0 mi NW 10.4 mph 20.7 mph N/A   Clear
3:15 PM 48.2 °F - 20.7 °F 34% 30.24 in 10.0 mi NW 8.1 mph 18.4 mph N/A   Clear
3:35 PM 48.6 °F - 20.8 °F 34% 30.24 in 10.0 mi NW 11.5 mph - N/A   Clear
3:55 PM 48.4 °F - 20.8 °F 34% 30.24 in 10.0 mi NNW 13.8 mph 18.4 mph N/A   Clear
4:15 PM 49.1 °F - 21.6 °F 34% 30.24 in 10.0 mi NNW 10.4 mph 16.1 mph N/A   Clear
4:35 PM 48.0 °F - 20.8 °F 34% 30.24 in 10.0 mi NNW 12.7 mph 17.3 mph N/A   Clear
4:55 PM 47.7 °F - 21.7 °F 36% 30.24 in 10.0 mi NNW 15.0 mph - N/A   Clear
5:15 PM 46.9 °F - 21.7 °F 37% 30.25 in 10.0 mi NNW 8.1 mph - N/A   Clear
5:35 PM 46.4 °F 41.9 °F 22.1 °F 38% 30.26 in 10.0 mi WNW 9.2 mph - N/A   Clear
5:55 PM 45.3 °F 42.3 °F 22.3 °F 40% 30.26 in 10.0 mi NW 5.8 mph - N/A   Clear
6:15 PM 43.7 °F 42.1 °F 22.6 °F 43% 30.27 in 10.0 mi NW 3.5 mph - N/A   Clear
6:35 PM 41.7 °F - 24.6 °F 51% 30.27 in 10.0 mi Calm Calm - N/A   Clear
6:55 PM 40.6 °F - 25.5 °F 55% 30.27 in 10.0 mi Calm Calm - N/A   Clear
7:15 PM 39.4 °F - 25.2 °F 57% 30.27 in 10.0 mi Calm Calm - N/A   Clear
7:35 PM 38.1 °F - 25.2 °F 60% 30.27 in 10.0 mi Calm Calm - N/A   Clear
7:55 PM 36.9 °F - 27.1 °F 68% 30.27 in 10.0 mi Calm Calm - N/A   Clear
8:15 PM 34.9 °F - 26.6 °F 72% 30.27 in 10.0 mi Calm Calm - N/A   Clear
8:55 PM 34.0 °F - 28.4 °F 80% 30.27 in 10.0 mi Calm Calm - N/A   Clear
9:15 PM 33.3 °F - 28.2 °F 82% 30.28 in 10.0 mi Calm Calm - N/A   Clear
9:55 PM 32.0 °F - 28.4 °F 87% 30.28 in 10.0 mi Calm Calm - N/A   Clear
10:15 PM 32.0 °F - 28.2 °F 86% 30.27 in 10.0 mi Calm Calm - N/A   Clear
10:35 PM 30.6 °F - 26.6 °F 85% 30.27 in 10.0 mi Calm Calm - N/A   Clear
10:55 PM 30.2 °F - 26.4 °F 86% 30.27 in 10.0 mi Calm Calm - N/A   Clear
11:15 PM 30.7 °F - 26.6 °F 85% 30.27 in 10.0 mi Calm Calm - N/A   Clear
11:35 PM 30.2 °F - 26.6 °F 86% 30.27 in 10.0 mi Calm Calm - N/A   Clear
11:55 PM 29.3 °F - 25.7 °F 86% 30.27 in 10.0 mi Calm Calm - N/A   Clear